Regional Weather Roundup
Issued by NWS Upton, NY

Current Version | Previous Version | Graphics & Text | Print | Product List | Glossary Off
Versions: 1 2 3 4 5 6 7 8 9 10 11 12 13 14 15 16 17 18 19 20 21 22 23 24 25 26 27 28 29 30 31 32 33 34 35 36 37 38 39 40 41 42 43 44 45 46 47 48 49 50

000
ASUS41 KOKX 300605
RWROKX

REGIONAL WEATHER ROUNDUP
NATIONAL WEATHER SERVICE NEW YORK NY
200 AM EDT SAT AUG 30 2014

NOTE: "FAIR" INDICATES FEW OR NO CLOUDS BELOW 12,000 FEET WITH NO
SIGNIFICANT WEATHER AND/OR OBSTRUCTIONS TO VISIBILITY.

NYZ071-072-176-178-NJZ106-104-300700-
NEW YORK CITY METRO AREA


CITY           SKY/WX    TMP DP  RH WIND       PRES   REMARKS
CENTRAL PARK   FAIR      66  54  65 CALM      30.29S
LAGUARDIA APRT FAIR      68  55  63 SE3       30.25S
KENNEDY INTL   MOCLDY    67  56  67 SE6       30.27S
NEWARK/LIBERTY FAIR      67  55  65 CALM      30.26S
BRNX BOT. GARD   N/A     61  55  82 CALM      30.27F
TETERBORO      FAIR      64  54  69 CALM      30.25S
$$

NYZ177-179-078>081-300700-
LONG ISLAND NEW YORK

CITY           SKY/WX    TMP DP  RH WIND       PRES   REMARKS
FARMINGDALE    FAIR      61  55  81 CALM      30.26F
ISLIP          FAIR      60  54  80 CALM      30.25S
SHIRLEY        FAIR      56  53  90 CALM      30.28S
WESTHAMPTON    FAIR      52  47  83 CALM      30.29S
MONTAUK POINT    N/A     59  54  83 CALM      30.30S
$$

NYZ052-065-067-300700-
HUDSON VALLEY

CITY           SKY/WX    TMP DP  RH WIND       PRES   REMARKS
WHITE PLAINS   FAIR      58  55  90 CALM      30.26S
NEWBURGH       PTCLDY    61  55  82 CALM      30.27
MONTGOMERY     FAIR      53  51  93 CALM      30.26S
POUGHKEEPSIE   FAIR      57  54  89 CALM      30.25S
ALBANY         FAIR      63  55  75 S10       30.23S
$$

NJZ001-105-106-008-010-013-015-019>022-104-300700-
NEW JERSEY

CITY           SKY/WX    TMP DP  RH WIND       PRES   REMARKS
NEWARK/LIBERTY FAIR      67  55  65 CALM      30.26S
TETERBORO      FAIR      64  54  69 CALM      30.25S
CALDWELL       FAIR      57  53  86 CALM      30.27S
MORRISTOWN     FAIR      54  50  87 CALM      30.26S FOG
SOMERVILLE     FAIR      56  53  90 CALM      30.24S
LINDEN         FAIR      67  58  71 CALM      30.27S
SUSSEX         FAIR      56  52  86 CALM      30.26F
ANDOVER          N/A     54  53  97 CALM      30.26F
TRENTON        FAIR      59  54  83 CALM      30.25S
MILLVILLE      FAIR      55  54  96 CALM      30.24S
ATLANTIC CITY  FAIR      56  54  93 CALM      30.24F
WRIGHTSTOWN    FAIR      56  55  99 NE2       30.23F
TOMS RIVER     FAIR      52  46  82 CALM      30.26S
BELMAR         FAIR      59  50  72 CALM      30.25F
$$

PAZ047>061-062-071-300700-
EASTERN PENNSYLVANIA

CITY           SKY/WX    TMP DP  RH WIND       PRES   REMARKS
PHILADELPHIA   FAIR      65  58  78 CALM      30.25S
ALLENTOWN      FAIR      60  55  83 CALM      30.24F
SCRANTON       FAIR      63  57  81 VRB6      30.24R
$$

CTZ002-004>006-009-010-012-RIZ004-006-007-MAZ004-011-015-300700-
SOUTHERN NEW ENGLAND
 IN CT

CITY           SKY/WX    TMP DP  RH WIND       PRES   REMARKS
BRADLEY INTL   FAIR      59  54  83 S6        30.27R
HARTFORD       FAIR      58  54  86 CALM      30.28R
DANBURY        FAIR      55  53  93 CALM      30.29S
WTRBRY/OXFORD  FAIR      55  50  82 S5        30.29F
BRIDGEPORT     FAIR      67  58  72 S5        30.27S
MERIDEN        FAIR      54  51  90 CALM      30.28S
NEW HAVEN      FAIR      66  56  70 S7        30.27F
CHESTER        FAIR      59  55  88 CALM      30.29S
GROTON         FAIR      55  54  96 NE3       30.28S
WILLIMANTIC    FAIR      55  52  89 CALM      30.30R

 IN RI

CITY           SKY/WX    TMP DP  RH WIND       PRES   REMARKS
PROVIDENCE     FAIR      59  56  89 W3        30.30R
BLOCK ISLAND   FAIR      59  52  77 SE5       30.29S
WESTERLY       FAIR      55  53  93 CALM      30.29S

 IN MA

CITY           SKY/WX    TMP DP  RH WIND       PRES   REMARKS
BOSTON         FAIR      59  54  83 S6        30.30R
WORCESTER      FAIR      56  54  93 SW7       30.29S
WESTFIELD      FAIR      56  53  90 CALM      30.27S
PROVINCETOWN   FAIR      48  45  87 S5        30.30S
NANTUCKET      FAIR      55  46  71 CALM      30.30R
$$

ANZ330-335-338-340-345-350-353-355-300700-
COASTAL MARINE OBSERVATIONS


STATION/POSITION TIME  SKY/WX   TEMP    WIND        PRES    VSBY  WAVE
                                AIR SEA DIR/SP/G                  HT/PER
                 (UTC)          (F)     (DEG/KT/KT) (MB)    (MI)  (FT/S)
NY HARB ENTRANCE NOT AVBL
4S FIRE IS       NOT AVBL
23SW MTP         0600                                 N/A           3/ 8
HUDSON CANYON    0600            70 72  130/ 10/ 12 1024.4          3/ 8
EXECUTION ROCKS  0600            67 74  120/  6/  8   N/A
WESTERN LI SOUND 0600            69     160/ 10/ 12   N/A           0
CENTRAL LI SOUND 0500            68 72  180/ 10/ 12   N/A           1/ 2
EASTERN LI SOUND 0500            67 69  160/  6/ 10   N/A
ROBBINS REEF     0600            69     160/ 12/ 13   N/A
$$


>>>>>>>>>>>>>>>>>>>>>>>>>>>> KEY <<<<<<<<<<<<<<<<<<<<<<<<<<<
>                                                          <
>     SKY/WX - SKY CONDITION/PRESENT WEATHER               <
>     TMP    - TEMPERATURE IN FAHRENHEIT                   <
>     DP     - DEWPOINT IN FAHRENHEIT                      <
>     RH     - RELATIVE HUMIDITY IN PERCENT                <
>     WIND   - DIRECTION AND SPEED IN MPH                  <
>     PRES   - MEAN SEA LEVEL PRESSURE IN INCHES OF HG     <
>     WCI    - WIND CHILL INDEX                            <
>     VSB    - VISIBILITY IN MILES                         <
>     HX     - HEAT INDEX                                  <
>     TC     - TEMPERATURE IN CELSIUS                      <
>     VRB    - VARIABLE WIND DIRECTION                     <
>                                                          <
>>>>>>>>>>>>>>>>>>>>>>>>>>>> KEY <<<<<<<<<<<<<<<<<<<<<<<<<<<





USA.gov is the U.S. government's official web portal to all federal, state and local government web resources and services.